Weather History for Arctic Village, AK

Change the Weather History Date:

Monday, September 3, 2012

  Actual Average Record
Temperature  
Mean Temperature 44 °F -  
Max Temperature 50 °F 53 °F 70 °F (1990)
Min Temperature 39 °F 31 °F 20 °F (1990)
Degree Days  
Heating Degree Days 20    
Moisture  
Dew Point 39 °F    
Average Humidity 82    
Maximum Humidity 100    
Minimum Humidity 66    
Precipitation  
Precipitation 0.00 in - - ()
Sea Level Pressure  
Sea Level Pressure 29.59 in    
Wind  
Wind Speed 6 mph (NE)    
Max Wind Speed 12 mph    
Max Gust Speed 17 mph    
Visibility 10 miles    
Events      
Averages and records for this station are not official NWS values.
T = Trace of Precipitation, MM = Missing Value Source: NWS Daily Summary

Daily Weather History Graph

Daily Weather History Graph

Search for Another Location

Airport:

Trip Planner

Search our weather history database for the weather conditions in past years. The results will help you decide how hot, cold, wet, or windy it might be!

Date:

Astronomy

Sep. 03, 2012 Rise Set
Actual Time 6:18 AM AKDT 9:02 PM AKDT
Civil Twilight 5:13 AM AKDT 10:05 PM AKDT
Nautical Twilight 3:34 AM AKDT 11:41 PM AKDT
Astronomical Twilight Sun does not rise Sun does not rise
Moon 8:06 PM AKDT (9/3) 11:47 AM AKDT (9/3)
Length of Visible Light 16h 51m
Length of Day
14h 44m
Waning Gibbous, 89% of the Moon is Illuminated
Sep 3
Waning Gibbous
Sep 8
Last Quarter
Sep 15
New
Sep 22
First Quarter
Sep 29
Full

Hourly Weather History & Observations

Time (AKDT) Temp. Windchill Dew Point Humidity Pressure Visibility Wind Dir Wind Speed Gust Speed Precip Events Conditions
12:16 AM 42.8 °F 39.3 °F 41.0 °F 93% 29.65 in 10.0 mi NNE 5.8 mph - N/A   Overcast
12:36 AM 42.8 °F 40.1 °F 41.0 °F 93% 29.65 in 10.0 mi North 4.6 mph - N/A   Overcast
12:56 AM 42.8 °F 39.3 °F 41.0 °F 93% 29.65 in 10.0 mi North 5.8 mph - N/A   Overcast
1:16 AM 42.8 °F 39.3 °F 39.2 °F 87% 29.65 in 10.0 mi North 5.8 mph - N/A   Overcast
1:36 AM 42.8 °F 39.3 °F 39.2 °F 87% 29.65 in 10.0 mi North 5.8 mph - N/A   Overcast
1:56 AM 42.8 °F 40.1 °F 41.0 °F 93% 29.65 in 10.0 mi North 4.6 mph - N/A   Overcast
2:16 AM 42.8 °F 40.1 °F 41.0 °F 93% 29.66 in 10.0 mi North 4.6 mph - N/A   Overcast
2:36 AM 42.8 °F 39.3 °F 39.2 °F 87% 29.65 in 10.0 mi North 5.8 mph - N/A   Overcast
2:56 AM 42.8 °F 39.3 °F 39.2 °F 87% 29.65 in 10.0 mi NNE 5.8 mph - N/A   Overcast
3:16 AM 41.0 °F 39.0 °F 39.2 °F 93% 29.65 in 10.0 mi NE 3.5 mph - N/A   Overcast
3:36 AM 41.0 °F 37.1 °F 39.2 °F 93% 29.65 in 10.0 mi NNE 5.8 mph - N/A   Overcast
3:56 AM 41.0 °F 38.0 °F 39.2 °F 93% 29.65 in 10.0 mi NNE 4.6 mph - N/A   Overcast
4:16 AM 41.0 °F 38.0 °F 39.2 °F 93% 29.65 in 10.0 mi NE 4.6 mph - N/A   Overcast
4:36 AM 41.0 °F 38.0 °F 39.2 °F 93% 29.64 in 10.0 mi NNE 4.6 mph - N/A   Overcast
4:56 AM 39.2 °F 34.2 °F 39.2 °F 100% 29.64 in 10.0 mi NE 6.9 mph - N/A   Overcast
5:16 AM 39.2 °F 35.0 °F 37.4 °F 93% 29.64 in 10.0 mi ENE 5.8 mph - N/A   Mostly Cloudy
5:36 AM 39.2 °F 35.0 °F 39.2 °F 100% 29.64 in 10.0 mi NE 5.8 mph - N/A   Mostly Cloudy
5:56 AM 39.2 °F 35.9 °F 37.4 °F 93% 29.64 in 10.0 mi NE 4.6 mph - N/A   Overcast
6:16 AM 39.2 °F 34.2 °F 37.4 °F 93% 29.63 in 10.0 mi NNE 6.9 mph - N/A   Scattered Clouds
6:36 AM 39.2 °F 33.6 °F 37.4 °F 93% 29.63 in 10.0 mi NNE 8.1 mph - N/A   Scattered Clouds
6:56 AM 39.2 °F 33.6 °F 37.4 °F 93% 29.63 in 10.0 mi NE 8.1 mph - N/A   Mostly Cloudy
7:16 AM 39.2 °F 33.6 °F 37.4 °F 93% 29.63 in 10.0 mi NNE 8.1 mph - N/A   Overcast
7:36 AM 39.2 °F 33.0 °F 37.4 °F 93% 29.63 in 10.0 mi NE 9.2 mph - N/A   Overcast
7:56 AM 39.2 °F 33.0 °F 37.4 °F 93% 29.63 in 10.0 mi NNE 9.2 mph - N/A   Overcast
8:16 AM 41.0 °F 35.2 °F 37.4 °F 87% 29.62 in 10.0 mi NNE 9.2 mph - N/A   Overcast
8:36 AM 42.8 °F 38.6 °F 37.4 °F 81% 29.62 in 10.0 mi NNE 6.9 mph - N/A   Overcast
8:56 AM 42.8 °F 38.6 °F 37.4 °F 81% 29.62 in 10.0 mi NE 6.9 mph - N/A   Mostly Cloudy
9:16 AM 42.8 °F 38.0 °F 37.4 °F 81% 29.61 in 10.0 mi NNE 8.1 mph - N/A   Scattered Clouds
9:36 AM 42.8 °F 37.5 °F 37.4 °F 81% 29.61 in 10.0 mi NNE 9.2 mph - N/A   Mostly Cloudy
9:56 AM 44.6 °F 39.2 °F 39.2 °F 81% 29.60 in 10.0 mi NE 10.4 mph 17.3 mph N/A   Overcast
10:16 AM 44.6 °F 40.7 °F 39.2 °F 81% 29.60 in 10.0 mi NNE 6.9 mph - N/A   Mostly Cloudy
10:36 AM 44.6 °F 38.8 °F 37.4 °F 76% 29.59 in 10.0 mi NNE 11.5 mph - N/A   Mostly Cloudy
10:56 AM 46.4 °F 41.1 °F 39.2 °F 76% 29.59 in 10.0 mi NNE 11.5 mph 17.3 mph N/A   Mostly Cloudy
11:16 AM 46.4 °F 42.9 °F 37.4 °F 71% 29.59 in 10.0 mi NNE 6.9 mph 17.3 mph N/A   Mostly Cloudy
11:36 AM 46.4 °F 41.1 °F 39.2 °F 76% 29.58 in 10.0 mi NNE 11.5 mph 16.1 mph N/A   Overcast
11:56 AM 46.4 °F 42.4 °F 39.2 °F 76% 29.58 in 10.0 mi NNE 8.1 mph - N/A   Overcast
12:16 PM 48.2 °F - 39.2 °F 71% 29.57 in 10.0 mi NNE 8.1 mph - N/A   Overcast
12:36 PM 48.2 °F - 39.2 °F 71% 29.57 in 10.0 mi NNE 8.1 mph - N/A   Overcast
12:56 PM 50.0 °F - 39.2 °F 66% 29.57 in 10.0 mi NNE 8.1 mph - N/A   Overcast
1:16 PM 50.0 °F - 39.2 °F 66% 29.57 in 10.0 mi NNE 5.8 mph - N/A   Overcast
1:36 PM 50.0 °F - 39.2 °F 66% 29.56 in 10.0 mi NE 3.5 mph - N/A   Overcast
1:56 PM 50.0 °F - 39.2 °F 66% 29.56 in 10.0 mi ESE 10.4 mph - N/A   Overcast
2:16 PM 50.0 °F - 39.2 °F 66% 29.57 in 10.0 mi East 11.5 mph - N/A   Overcast
2:36 PM 50.0 °F - 39.2 °F 66% 29.56 in 10.0 mi ESE 10.4 mph - N/A   Mostly Cloudy
2:56 PM 50.0 °F - 39.2 °F 66% 29.56 in 10.0 mi ESE 10.4 mph 17.3 mph N/A   Mostly Cloudy
3:16 PM 50.0 °F - 39.2 °F 66% 29.56 in 10.0 mi East 10.4 mph - N/A   Overcast
3:36 PM 50.0 °F - 39.2 °F 66% 29.56 in 10.0 mi East 8.1 mph - N/A   Overcast
3:56 PM 50.0 °F - 39.2 °F 66% 29.55 in 10.0 mi East 9.2 mph - N/A   Overcast
4:16 PM 50.0 °F - 39.2 °F 66% 29.56 in 10.0 mi East 10.4 mph - N/A   Overcast
4:36 PM 50.0 °F - 39.2 °F 66% 29.55 in 10.0 mi ESE 8.1 mph - N/A   Overcast
4:56 PM 50.0 °F - 39.2 °F 66% 29.56 in 10.0 mi SE 9.2 mph - N/A   Overcast
5:16 PM 48.2 °F - 41.0 °F 76% 29.56 in 10.0 mi ESE 11.5 mph - N/A   Overcast
5:36 PM 48.2 °F - 39.2 °F 71% 29.55 in 10.0 mi ESE 6.9 mph - N/A   Mostly Cloudy
5:56 PM 48.2 °F - 39.2 °F 71% 29.56 in 10.0 mi SSE 3.5 mph - N/A   Mostly Cloudy
6:16 PM 48.2 °F - 39.2 °F 71% 29.55 in 10.0 mi South 6.9 mph - N/A   Mostly Cloudy
6:36 PM 48.2 °F - 39.2 °F 71% 29.55 in 10.0 mi SE 3.5 mph - N/A   Overcast
6:56 PM 48.2 °F - 39.2 °F 71% 29.55 in 10.0 mi SSE 3.5 mph - N/A   Overcast
7:16 PM 48.2 °F - 41.0 °F 76% 29.55 in 10.0 mi ESE 3.5 mph - N/A   Overcast
7:36 PM 48.2 °F - 41.0 °F 76% 29.55 in 10.0 mi SSE 8.1 mph - N/A   Overcast
7:56 PM 46.4 °F 44.3 °F 42.8 °F 87% 29.55 in 10.0 mi SSE 4.6 mph - N/A   Overcast
8:16 PM 46.4 °F 45.2 °F 42.8 °F 87% 29.55 in 10.0 mi ESE 3.5 mph - N/A   Overcast
8:36 PM 46.4 °F - 42.8 °F 87% 29.55 in 10.0 mi Calm Calm - N/A   Overcast
8:56 PM 44.6 °F 41.4 °F 42.8 °F 93% 29.55 in 10.0 mi NNE 5.8 mph - N/A   Overcast
9:16 PM 44.6 °F 41.4 °F 42.8 °F 93% 29.55 in 10.0 mi North 5.8 mph - N/A   Overcast
9:36 PM 44.6 °F 40.7 °F 42.8 °F 93% 29.55 in 10.0 mi North 6.9 mph - N/A   Overcast
9:56 PM 44.6 °F 42.2 °F 41.0 °F 87% 29.55 in 10.0 mi NNW 4.6 mph - N/A   Overcast
10:16 PM 44.6 °F 41.4 °F 39.2 °F 81% 29.55 in 10.0 mi North 5.8 mph - N/A   Overcast
10:36 PM 44.6 °F 42.2 °F 39.2 °F 81% 29.55 in 10.0 mi North 4.6 mph - N/A   Overcast
10:56 PM 44.6 °F 43.1 °F 39.2 °F 81% 29.55 in 10.0 mi North 3.5 mph - N/A   Overcast
11:16 PM 44.6 °F 43.1 °F 41.0 °F 87% 29.56 in 10.0 mi East 3.5 mph - N/A   Overcast
11:36 PM 44.6 °F - 41.0 °F 87% 29.56 in 10.0 mi Calm Calm - N/A   Overcast
11:56 PM 44.6 °F - 41.0 °F 87% 29.56 in 10.0 mi Calm Calm - N/A   Overcast